GOES 4 [-]

Last updated on Aug. 7, 2020, 5:35 a.m. UTC

1 11964U 80074A   20219.77363993 -.00000050  00000-0  00000+0 0  9996
2 11964  12.4632 322.3546 0033945  51.0012 242.3682  0.99231522106387
UTC
Height (km)
Latitude
Longitude
Inclination
Orbital Period
UTC large
Height (km)
Speed (km/s)
/
Latitude / Longitude
Inclination (degrees)
Orbital Period (minutes)
Azimuth
Elevation
Range (km)
Doppler Factor
iOS Compass Heading
iOS Angle

Next 30 passes for location: Hong Kong

Rise time Rise Azimuth (degrees) Set time Set Azimuth (degrees) Duration Max altitude (degrees)

No matching passes for this satellites